| time (UTC) | temp C | wind direction | speed KPH | gust KPH | rain 1hr cm | rain 24hr cm | rain mn cm | humidity % | barometer mb |
| 20260509182703 | 23 | 360 | 9.7 | 19.3 | 0.00 | 0.00 | 0.00 | 28 | |
| 20260509181803 | 23 | 360 | 12.9 | 29.0 | 0.00 | 0.00 | 0.00 | 29 | |
| 20260509180903 | 22 | 360 | 11.3 | 22.5 | 0.00 | 0.00 | 0.00 | 30 | |
| 20260509180213 | 22 | 360 | 9.7 | 22.5 | 0.00 | 0.00 | 0.00 | 30 | |
| 20260509175403 | 22 | 360 | 9.7 | 17.7 | 0.00 | 0.00 | 0.00 | 29 | |
| 20260509174503 | 22 | 360 | 11.3 | 22.5 | 0.00 | 0.00 | 0.00 | 29 | |
| 20260509173603 | 22 | 360 | 6.4 | 16.1 | 0.00 | 0.00 | 0.00 | 32 | |
| 20260509172913 | 21 | 360 | 4.8 | 14.5 | 0.00 | 0.00 | 0.00 | 29 | |
| 20260509171803 | 21 | 360 | 9.7 | 29.0 | 0.00 | 0.00 | 0.00 | 31 | |
| 20260509170903 | 21 | 360 | 11.3 | 20.9 | 0.00 | 0.00 | 0.00 | 30 | |
| 20260509170003 | 21 | 360 | 8.0 | 20.9 | 0.00 | 0.00 | 0.00 | 32 | |
| 20260509165403 | 21 | 360 | 8.0 | 19.3 | 0.00 | 0.00 | 0.00 | 31 | |
| 20260509164503 | 21 | 360 | 9.7 | 19.3 | 0.00 | 0.00 | 0.00 | 32 | |
| 20260509163603 | 20 | 360 | 8.0 | 17.7 | 0.00 | 0.00 | 0.00 | 34 | |
| 20260509162703 | 20 | 360 | 8.0 | 14.5 | 0.00 | 0.00 | 0.00 | 31 | |
| 20260509161803 | 20 | 357 | 4.8 | 14.5 | 0.00 | 0.00 | 0.00 | 30 | |
| 20260509160903 | 20 | 360 | 1.6 | 11.3 | 0.00 | 0.00 | 0.00 | 30 | |
| 20260509160003 | 19 | 360 | 1.6 | 6.4 | 0.00 | 0.00 | 0.00 | 29 | |
| 20260509155612 | 18 | 360 | 1.6 | 6.4 | 0.00 | 0.00 | 0.00 | 31 | |
| 20260509154503 | 18 | 360 | 1.6 | 4.8 | 0.00 | 0.00 | 0.00 | 31 | |
| 20260509153604 | 17 | 360 | 3.2 | 6.4 | 0.00 | 0.00 | 0.00 | 31 | |
| 20260509152703 | 17 | 360 | 1.6 | 8.0 | 0.00 | 0.00 | 0.00 | 31 | |
| 20260509151803 | 17 | 360 | 1.6 | 6.4 | 0.00 | 0.00 | 0.00 | 31 | |
| 20260509150903 | 16 | 360 | 0.0 | 3.2 | 0.00 | 0.00 | 0.00 | 34 | |
| 20260509150004 | 15 | 360 | 0.0 | 1.6 | 0.00 | 0.00 | 0.00 | 36 | |
| 20260509145403 | 15 | 360 | 0.0 | 4.8 | 0.00 | 0.00 | 0.00 | 39 | |
| 20260509144713 | 14 | 360 | 3.2 | 6.4 | 0.00 | 0.00 | 0.00 | 41 | |
| 20260509143603 | 13 | 360 | 6.4 | 11.3 | 0.00 | 0.00 | 0.00 | 43 | |
| 20260509142914 | 13 | 360 | 4.8 | 9.7 | 0.00 | 0.00 | 0.00 | 46 | |
| 20260509141803 | 12 | 360 | 1.6 | 4.8 | 0.00 | 0.00 | 0.00 | 44 | |
| 20260509141112 | 11 | 360 | 3.2 | 4.8 | 0.00 | 0.00 | 0.00 | 44 | |
| 20260509140004 | 9 | 360 | 3.2 | 8.0 | 0.00 | 0.00 | 0.00 | 48 | |
| 20260509135403 | 8 | 360 | 0.0 | 4.8 | 0.00 | 0.00 | 0.00 | 48 | |
| 20260509134713 | 7 | 0 | 0.0 | 0.0 | 0.00 | 0.00 | 0.00 | 48 | |
| 20260509133814 | 7 | 0 | 0.0 | 0.0 | 0.00 | 0.00 | 0.00 | 51 | |
| 20260509132703 | 6 | 0 | 0.0 | 0.0 | 0.00 | 0.00 | 0.00 | 53 | |
| 20260509131803 | 6 | 0 | 0.0 | 0.0 | 0.00 | 0.00 | 0.00 | 56 | |
| 20260509130903 | 5 | 0 | 0.0 | 0.0 | 0.00 | 0.00 | 0.00 | 55 | |
| 20260509130214 | 6 | 317 | 0.0 | 1.6 | 0.00 | 0.00 | 0.00 | 55 | |
| 20260509125403 | 6 | 327 | 1.6 | 6.4 | 0.00 | 0.00 | 0.00 | 54 | |
| 20260509124503 | 6 | 50 | 1.6 | 6.4 | 0.00 | 0.00 | 0.00 | 51 | |
| 20260509123603 | 6 | 80 | 1.6 | 4.8 | 0.00 | 0.00 | 0.00 | 49 | |
| 20260509122703 | 6 | 79 | 3.2 | 6.4 | 0.00 | 0.00 | 0.00 | 51 | |
| 20260509121803 | 6 | 33 | 3.2 | 6.4 | 0.00 | 0.00 | 0.00 | 49 | |
| 20260509120903 | 7 | 339 | 3.2 | 8.0 | 0.00 | 0.00 | 0.00 | 48 | |
| 20260509120003 | 7 | 360 | 4.8 | 8.0 | 0.00 | 0.00 | 0.00 | 49 | |
| 20260509115403 | 7 | 52 | 1.6 | 6.4 | 0.00 | 0.00 | 0.00 | 49 | |
| 20260509114503 | 8 | 88 | 0.0 | 3.2 | 0.00 | 0.00 | 0.00 | 47 | |
| 20260509113603 | 8 | 0 | 0.0 | 0.0 | 0.00 | 0.00 | 0.00 | 44 | |
| 20260509112703 | 10 | 87 | 1.6 | 6.4 | 0.00 | 0.00 | 0.00 | 42 | |
| 20260509111803 | 9 | 87 | 1.6 | 3.2 | 0.00 | 0.00 | 0.00 | 39 | |
| 20260509110903 | 9 | 87 | 1.6 | 4.8 | 0.00 | 0.00 | 0.00 | 41 | |
| 20260509110003 | 10 | 83 | 3.2 | 6.4 | 0.00 | 0.00 | 0.00 | 39 | |
| 20260509105403 | 8 | 61 | 3.2 | 6.4 | 0.00 | 0.00 | 0.00 | 42 | |
| 20260509104503 | 8 | 24 | 1.6 | 4.8 | 0.00 | 0.00 | 0.00 | 46 | |
| 20260509103813 | 8 | 23 | 1.6 | 4.8 | 0.00 | 0.00 | 0.00 | 46 | |
| 20260509102912 | 9 | 23 | 1.6 | 4.8 | 0.00 | 0.00 | 0.00 | 45 | |
| 20260509101803 | 10 | 26 | 0.0 | 3.2 | 0.00 | 0.00 | 0.00 | 42 | |
| 20260509100903 | 10 | 0 | 0.0 | 0.0 | 0.00 | 0.00 | 0.00 | 41 | |
| 20260509100004 | 10 | 26 | 1.6 | 4.8 | 0.00 | 0.00 | 0.00 | 40 | |
| 20260509095403 | 10 | 26 | 1.6 | 4.8 | 0.00 | 0.00 | 0.00 | 42 | |
| 20260509094713 | 9 | 5 | 1.6 | 6.4 | 0.00 | 0.00 | 0.00 | 43 | |
| 20260509093603 | 8 | 324 | 1.6 | 4.8 | 0.00 | 0.00 | 0.00 | 45 | |
| 20260509092703 | 8 | 295 | 1.6 | 4.8 | 0.00 | 0.00 | 0.00 | 45 | |
| 20260509091803 | 8 | 295 | 0.0 | 3.2 | 0.00 | 0.00 | 0.00 | 51 | |
| 20260509090903 | 8 | 295 | 1.6 | 6.4 | 0.00 | 0.00 | 0.00 | 46 | |
| 20260509090003 | 10 | 302 | 1.6 | 8.0 | 0.00 | 0.00 | 0.00 | 46 | |
| 20260509085403 | 10 | 309 | 0.0 | 3.2 | 0.00 | 0.00 | 0.00 | 42 | |
| 20260509084503 | 10 | 309 | 1.6 | 4.8 | 0.00 | 0.00 | 0.00 | 39 | |
| 20260509083603 | 11 | 308 | 1.6 | 4.8 | 0.00 | 0.00 | 0.00 | 38 | |
| 20260509082703 | 11 | 307 | 1.6 | 4.8 | 0.00 | 0.00 | 0.00 | 37 | |
| 20260509081803 | 12 | 305 | 0.0 | 3.2 | 0.00 | 0.00 | 0.00 | 36 | |
| 20260509080903 | 15 | 302 | 3.2 | 8.0 | 0.00 | 0.00 | 0.00 | 32 | |
| 20260509080003 | 16 | 111 | 3.2 | 8.0 | 0.00 | 0.00 | 0.00 | 25 | |
| 20260509075403 | 16 | 122 | 4.8 | 14.5 | 0.00 | 0.00 | 0.00 | 25 | |
| 20260509074503 | 16 | 130 | 4.8 | 14.5 | 0.00 | 0.00 | 0.00 | 24 | |
| 20260509073604 | 16 | 137 | 3.2 | 9.7 | 0.00 | 0.00 | 0.00 | 25 | |
| 20260509072703 | 16 | 141 | 3.2 | 8.0 | 0.00 | 0.00 | 0.00 | 25 | |
| 20260509071803 | 15 | 143 | 1.6 | 6.4 | 0.00 | 0.00 | 0.00 | 26 | |
| 20260509070903 | 15 | 144 | 1.6 | 6.4 | 0.00 | 0.00 | 0.00 | 26 | |
| 20260509070004 | 15 | 145 | 1.6 | 6.4 | 0.00 | 0.00 | 0.00 | 27 | |
| 20260509065613 | 15 | 146 | 1.6 | 4.8 | 0.00 | 0.00 | 0.00 | 27 | |
| 20260509064714 | 16 | 146 | 1.6 | 4.8 | 0.00 | 0.00 | 0.00 | 26 | |
| 20260509063603 | 15 | 148 | 1.6 | 8.0 | 0.00 | 0.00 | 0.00 | 26 | |
| 20260509062703 | 16 | 155 | 3.2 | 8.0 | 0.00 | 0.00 | 0.00 | 27 | |
| 20260509061803 | 16 | 147 | 1.6 | 6.4 | 0.00 | 0.00 | 0.00 | 25 | |
| 20260509060903 | 16 | 149 | 1.6 | 6.4 | 0.00 | 0.00 | 0.00 | 25 | |
| 20260509060006 | 16 | 152 | 1.6 | 4.8 | 0.00 | 0.00 | 0.00 | 26 | |
| 20260509055403 | 16 | 152 | 1.6 | 4.8 | 0.00 | 0.00 | 0.00 | 25 | |
| 20260509054503 | 16 | 153 | 3.2 | 4.8 | 0.00 | 0.00 | 0.00 | 24 | |
| 20260509053603 | 16 | 184 | 3.2 | 6.4 | 0.00 | 0.00 | 0.00 | 25 | |
| 20260509052703 | 16 | 192 | 1.6 | 4.8 | 0.00 | 0.00 | 0.00 | 25 | |
| 20260509051803 | 17 | 192 | 1.6 | 6.4 | 0.00 | 0.00 | 0.00 | 24 | |
| 20260509050904 | 17 | 192 | 1.6 | 6.4 | 0.00 | 0.00 | 0.00 | 23 | |
| 20260509050003 | 17 | 192 | 1.6 | 4.8 | 0.00 | 0.00 | 0.00 | 22 | |
| 20260509045403 | 17 | 192 | 1.6 | 4.8 | 0.00 | 0.00 | 0.00 | 23 | |
| 20260509044503 | 17 | 192 | 1.6 | 4.8 | 0.00 | 0.00 | 0.00 | 23 | |
| 20260509043603 | 17 | 193 | 1.6 | 3.2 | 0.00 | 0.00 | 0.00 | 24 | |
| 20260509042914 | 17 | 193 | 1.6 | 4.8 | 0.00 | 0.00 | 0.00 | 24 | |
| 20260509041803 | 17 | 193 | 3.2 | 6.4 | 0.00 | 0.00 | 0.00 | 25 | |
| 20260509040903 | 17 | 194 | 3.2 | 8.0 | 0.00 | 0.00 | 0.00 | 25 | |
| 20260509040003 | 17 | 197 | 1.6 | 4.8 | 0.00 | 0.00 | 0.00 | 25 | |
| 20260509035403 | 17 | 196 | 3.2 | 9.7 | 0.00 | 0.00 | 0.00 | 25 | |
| 20260509034503 | 18 | 229 | 4.8 | 8.0 | 0.00 | 0.00 | 0.00 | 23 | |
| 20260509033814 | 18 | 341 | 3.2 | 6.4 | 0.00 | 0.00 | 0.00 | 22 | |
| 20260509032703 | 20 | 360 | 3.2 | 8.0 | 0.00 | 0.00 | 0.00 | 21 | |
| 20260509031803 | 21 | 360 | 3.2 | 11.3 | 0.00 | 0.00 | 0.00 | 20 | |
| 20260509030903 | 21 | 360 | 4.8 | 9.7 | 0.00 | 0.00 | 0.00 | 19 | |
| 20260509030003 | 21 | 360 | 3.2 | 11.3 | 0.00 | 0.00 | 0.00 | 19 | |
| 20260509025403 | 21 | 360 | 3.2 | 8.0 | 0.00 | 0.00 | 0.00 | 19 | |
| 20260509024503 | 22 | 360 | 3.2 | 14.5 | 0.00 | 0.00 | 0.00 | 18 | |
| 20260509023603 | 22 | 360 | 4.8 | 11.3 | 0.00 | 0.00 | 0.00 | 18 | |
| 20260509022703 | 22 | 360 | 8.0 | 14.5 | 0.00 | 0.00 | 0.00 | 18 | |
| 20260509022013 | 23 | 360 | 8.0 | 14.5 | 0.00 | 0.00 | 0.00 | 19 | |
| 20260509020903 | 23 | 360 | 8.0 | 16.1 | 0.00 | 0.00 | 0.00 | 19 | |
| 20260509020003 | 24 | 360 | 8.0 | 14.5 | 0.00 | 0.00 | 0.00 | 20 | |
| 20260509015403 | 25 | 360 | 9.7 | 16.1 | 0.00 | 0.00 | 0.00 | 20 | |
| 20260509014503 | 25 | 360 | 8.0 | 17.7 | 0.00 | 0.00 | 0.00 | 19 | |
| 20260509013603 | 26 | 357 | 8.0 | 17.7 | 0.00 | 0.00 | 0.00 | 19 | |
| 20260509012703 | 26 | 358 | 8.0 | 20.9 | 0.00 | 0.00 | 0.00 | 17 | |
| 20260509012014 | 26 | 358 | 8.0 | 16.1 | 0.00 | 0.00 | 0.00 | 18 | |
| 20260509010903 | 26 | 359 | 11.3 | 22.5 | 0.00 | 0.00 | 0.00 | 20 | |
| 20260509010003 | 27 | 359 | 8.0 | 17.7 | 0.00 | 0.00 | 0.00 | 20 | |
| 20260509005403 | 27 | 359 | 8.0 | 14.5 | 0.00 | 0.00 | 0.00 | 22 | |
| 20260509004504 | 27 | 359 | 6.4 | 11.3 | 0.00 | 0.00 | 0.00 | 21 | |
| 20260509003813 | 27 | 358 | 8.0 | 11.3 | 0.00 | 0.00 | 0.00 | 19 | |
| 20260509002703 | 27 | 338 | 16.1 | 22.5 | 0.00 | 0.00 | 0.00 | 20 | |
| 20260509001803 | 28 | 347 | 12.9 | 27.4 | 0.00 | 0.00 | 0.00 | 22 | |
| 20260509001113 | 28 | 356 | 6.4 | 24.1 | 0.00 | 0.00 | 0.00 | 17 | |
| 20260509000003 | 29 | 352 | 6.4 | 14.5 | 0.00 | 0.00 | 0.00 | 18 | |
| 20260508235403 | 28 | 316 | 3.2 | 9.7 | 0.00 | 0.00 | 0.00 | 18 | |
| 20260508234503 | 28 | 290 | 6.4 | 11.3 | 0.00 | 0.00 | 0.00 | 18 | |
| 20260508233603 | 27 | 296 | 3.2 | 9.7 | 0.00 | 0.00 | 0.00 | 22 | |
| 20260508232703 | 27 | 138 | 3.2 | 9.7 | 0.00 | 0.00 | 0.00 | 18 | |
| 20260508231803 | 27 | 100 | 4.8 | 9.7 | 0.00 | 0.00 | 0.00 | 18 | |
| 20260508231113 | 27 | 80 | 3.2 | 9.7 | 0.00 | 0.00 | 0.00 | 18 | |
| 20260508230003 | 27 | 78 | 4.8 | 11.3 | 0.00 | 0.00 | 0.00 | 20 | |
| 20260508225403 | 27 | 89 | 8.0 | 16.1 | 0.00 | 0.00 | 0.00 | 19 | |
| 20260508224503 | 27 | 111 | 4.8 | 9.7 | 0.00 | 0.00 | 0.00 | 20 | |
| 20260508223603 | 27 | 26 | 6.4 | 17.7 | 0.00 | 0.00 | 0.00 | 21 | |
| 20260508222703 | 27 | 24 | 6.4 | 14.5 | 0.00 | 0.00 | 0.00 | 20 | |
| 20260508221805 | 27 | 162 | 6.4 | 14.5 | 0.00 | 0.00 | 0.00 | 21 | |
| 20260508220903 | 27 | 174 | 6.4 | 11.3 | 0.00 | 0.00 | 0.00 | 19 | |
| 20260508220003 | 27 | 160 | 6.4 | 11.3 | 0.00 | 0.00 | 0.00 | 19 | |
| 20260508215613 | 27 | 133 | 4.8 | 9.7 | 0.00 | 0.00 | 0.00 | 20 | |
| 20260508214503 | 27 | 131 | 3.2 | 11.3 | 0.00 | 0.00 | 0.00 | 20 | |
| 20260508213603 | 27 | 81 | 4.8 | 14.5 | 0.00 | 0.00 | 0.00 | 23 | |
| 20260508212703 | 27 | 332 | 3.2 | 6.4 | 0.00 | 0.00 | 0.00 | 24 | |
| 20260508211803 | 27 | 302 | 4.8 | 14.5 | 0.00 | 0.00 | 0.00 | 20 | |
| 20260508210903 | 26 | 63 | 6.4 | 17.7 | 0.00 | 0.00 | 0.00 | 21 | |
| 20260508210003 | 26 | 345 | 4.8 | 16.1 | 0.00 | 0.00 | 0.00 | 23 | |
| 20260508205403 | 26 | 9 | 4.8 | 12.9 | 0.00 | 0.00 | 0.00 | 27 | |
| 20260508204503 | 26 | 345 | 8.0 | 22.5 | 0.00 | 0.00 | 0.00 | 21 | |
| 20260508203814 | 27 | 325 | 9.7 | 19.3 | 0.00 | 0.00 | 0.00 | 21 | |
| 20260508202703 | 26 | 307 | 3.2 | 11.3 | 0.00 | 0.00 | 0.00 | 21 | |
| 20260508201803 | 26 | 352 | 6.4 | 19.3 | 0.00 | 0.00 | 0.00 | 23 | |
| 20260508200903 | 26 | 340 | 4.8 | 19.3 | 0.00 | 0.00 | 0.00 | 24 | |
| 20260508200003 | 26 | 347 | 4.8 | 14.5 | 0.00 | 0.00 | 0.00 | 24 | |
| 20260508195403 | 26 | 14 | 4.8 | 11.3 | 0.00 | 0.00 | 0.00 | 21 | |
| 20260508194503 | 26 | 9 | 4.8 | 11.3 | 0.00 | 0.00 | 0.00 | 22 | |
| 20260508193603 | 26 | 360 | 6.4 | 17.7 | 0.00 | 0.00 | 0.00 | 23 | |
| 20260508192703 | 26 | 1 | 6.4 | 17.7 | 0.00 | 0.00 | 0.00 | 23 | |
| 20260508191803 | 25 | 347 | 6.4 | 20.9 | 0.00 | 0.00 | 0.00 | 23 | |
| 20260508190903 | 26 | 312 | 6.4 | 14.5 | 0.00 | 0.00 | 0.00 | 23 | |
| 20260508190213 | 26 | 313 | 8.0 | 17.7 | 0.00 | 0.00 | 0.00 | 21 | |
| 20260508185403 | 26 | 314 | 4.8 | 9.7 | 0.00 | 0.00 | 0.00 | 24 | |
| 20260508184503 | 25 | 350 | 3.2 | 9.7 | 0.00 | 0.00 | 0.00 | 23 | |
| 20260508183603 | 25 | 360 | 6.4 | 9.7 | 0.00 | 0.00 | 0.00 | 22 |